FENGYUN 1C DEB, 37404

Orbit data source: Space-Track

FENGYUN 1C DEB, 37404 is space debris in SSO originally from a launch on Mon, 10 May 1999 UTC launched from the Taiyaun Space Center, China (TSC). Fengyun 1C debris stems from the Chinese weather satellite Fengyun-1C, which was intentionally destroyed by a Chinese anti-satellite missile in 2007. This event dramatically increased the amount of space debris, with thousands of trackable fragments posing hazards to satellites and human spaceflight. The Fengyun 1C debris cloud has become a focal point in discussions about space sustainability and the need for international regulations to prevent the creation of new debris.

Loading next visibility...
Identifier
37404, 1999-025EFW
Orbit
SSO
Country
Flag of CNCN / PRC
Related business
Manufacturer
Unknown
Mission
Spacecraft
Bus & Motor
Unknown
Mass
Unknown
Launch date (UTC)
1999-05-10 (27 years ago)
Launch vehicle
Unknown
Launch site
Taiyaun Space Center, China (TSC)
Object type
Payload
Rocket body
Debris
Shape & HBR
Unknown shape, 0.1 m
Radar Cross Section
Small (<0.1 m²)

Expand to show TLE details & history
Last TLE update: 1 day ago

TLE from 1 day ago
0 FENGYUN 1C DEB
1 37404U 99025EFW 26165.76179319  .00001338  00000-0  50586-3 0  9998
2 37404  98.4538 168.9394 0043304 340.4434 198.0751 14.32350740853740
Epoch: 2026-06-14T18:16Z
TLE epoch observation values (Epoch: 2026-06-14T18:16:58.931Z)
Latitude
1.5094°
Longitude
171.85917°
Altitude
816.143 km
Speed
7.43 km/s
True Right ascension
23h 16m 39s
True Declination
1° 30' 02"
Sunlit
Object was in daylight at epoch
Visualization orbit readout
Latitude
Unknown
Longitude
Unknown
Altitude
Unknown
Speed
Unknown
Apparent Right ascension
Unknown
Apparent Declination
Unknown
Sunlit
N/A
Visualization observer readout
Local Sidereal Time
05:20:38
Azimuth
Unknown
Elevation
Unknown
Doppler factor
Unknown
Orbital elements
Apogee altitude
812.016 km
Perigee altitude
750.012 km
Semi-major axis
7,159.151 km
Eccentricity
0.00433
Inclination
98.4538°
RAAN
168.9394°
Arg. of periapsis
340.4434°
True anomaly
197.92193°
Mean anomaly
198.0751°
Eccentric anomaly
197.99844°
Mean motion
3.58303 °/min
Orbital period
100.47 mins
BSTAR
0.00050586
Loading maneuver chart data...
Computing Atmospheric mass density...
Loading historical data...
Loading historical data...
Loading historical data...
Loading historical data...
Loading historical data...
Loading historical data...
Loading historical data...

Documentation

Showing up to 5 results
|